[[{"header":{"parameterUnit":"m.s-1","parameterCategory":1,"la1":30.2991,"la2":30.254,"lo1":-89.0895,"lo2":-89.0444,"dy":0.0017,"dx":0.0017,"nx":28,"ny":28,"refTime":"2023-10-13T09:00:00:Z","depth":0,"parameterNumber":2,"parameterNumberName":"U-component_of_WINDS"},"data":[0,0,0,0,0,0,0,0,0,0,0,0,0,0,0,0,0,0,0,0,0,0,0,0,0,0,0,0,0,0,0,0,0,0,0,0,0,0,0,0,0,0,0,0,0,0,0,0,0,0,0,0,0,0,0,0,0,0,3.0285,3.0285,0,3.0317,3.0318,3.0318,3.0308,3.0307,3.0306,3.0306,3.0339,3.0341,3.0342,0,0,0,0,0,0,0,0,0,0,0,0,0,3.0216,3.0218,3.0285,3.0285,3.0285,3.0317,3.0318,3.0318,3.0308,3.0307,3.0306,3.0305,3.0339,3.0341,3.0342,0,0,0,0,0,0,0,0,0,0,0,0,0,3.0247,3.0218,3.0285,3.0284,3.0284,3.0317,3.0318,3.0318,3.0308,3.0307,3.0306,3.0305,3.0338,3.034,3.0343,3.0378,0,0,3.035,3.0351,0,0,0,0,0,0,0,0,3.0245,3.025,3.0284,3.0284,3.0285,3.0307,3.0306,3.0338,3.0308,3.0299,3.0306,3.0304,3.033,3.0332,3.0341,3.0379,3.0381,3.035,3.0351,3.0352,3.0353,0,0,0,0,0,0,0,3.0243,3.0248,3.0297,3.0284,3.0285,3.0283,3.0286,3.0312,3.032,3.03,3.0299,3.0303,3.033,3.0339,3.0342,3.0381,3.035,3.0352,3.0353,3.0354,3.0455,3.0456,0,0,0,0,0,0,3.0241,3.0246,3.0296,3.0298,3.0262,3.0285,3.0289,3.0301,3.0319,3.0321,3.0304,3.0302,3.0335,3.0339,3.0343,3.0388,3.0352,3.0355,3.0356,3.0454,3.0455,3.0457,0,0,0,0,0,0,3.0239,3.0245,3.0295,3.0272,3.0279,3.0288,3.0301,3.0302,3.0311,3.0323,3.0324,3.0312,3.0335,3.0339,3.037,3.0389,3.0356,3.0358,3.0452,3.0454,3.0456,3.0477,0,0,0,0,0,0,3.0237,3.0245,3.0257,3.0273,3.028,3.0321,3.0302,3.0304,3.0315,3.0314,3.033,3.0332,3.0334,3.0367,3.0373,3.0392,3.036,3.0451,3.0453,3.0455,3.0475,3.048,3.0484,0,0,0,0,0,3.0235,3.0261,3.0258,3.0264,3.0296,3.0322,3.0326,3.0328,3.0317,3.033,3.0338,3.0331,3.0386,3.037,3.0376,3.0396,3.0449,3.0452,3.0455,3.0473,3.0479,3.0483,0,0,0,0,0,0,3.0247,3.0263,3.026,3.0291,3.0306,3.032,3.0337,3.0334,3.0351,3.0349,3.0351,3.0355,3.0387,3.0394,3.0377,3.0434,3.0416,3.042,3.0427,3.0433,3.0437,3.0435,3.0361,0,0,0,0,0,3.0253,3.0273,3.0286,3.0313,3.032,3.0328,3.0339,3.034,3.0355,3.0361,3.037,3.0385,3.0406,3.042,3.0439,3.0476,3.0481,3.0493,3.0497,3.0501,3.0505,3.0529,3.0535,3.0466,3.0466,3.0466,0,0,3.0266,3.0278,3.029,3.0316,3.0327,3.0349,3.0333,3.0355,3.0372,3.0364,3.0394,3.0402,3.042,3.0454,3.047,3.0462,3.0525,3.0505,3.0507,3.051,3.0532,3.0539,3.0545,3.0468,3.0468,3.0467,0,0,3.0302,3.0312,3.0337,3.0349,3.0366,3.0372,3.0378,3.0394,3.0399,3.043,3.0425,3.0446,3.048,3.0494,3.0505,3.0551,3.0546,3.0557,3.058,3.0603,3.0608,3.0613,3.0632,3.0639,3.0561,3.0561,3.0561,0,3.0316,3.0348,3.035,3.0374,3.0387,3.0382,3.0409,3.042,3.0443,3.0453,3.0443,3.049,3.05,3.054,3.0552,3.056,3.0569,3.0555,3.0607,3.0612,3.0617,3.0635,3.0642,3.0562,3.0562,3.0562,3.0562,0,3.0367,3.0389,3.0408,3.0431,3.0446,3.0471,3.0478,3.0493,3.0494,3.0501,3.0534,3.0547,3.0571,3.058,3.0579,3.0621,3.0616,3.0607,3.0589,3.0625,3.0642,3.0649,3.0564,3.0563,3.0563,3.0563,0,0,3.0409,3.0436,3.0443,3.0455,3.0475,3.0494,3.052,3.0544,3.0558,3.0575,3.0599,3.063,3.0623,3.0636,3.0638,3.0658,3.0697,3.0647,3.0647,3.0658,3.0747,3.0755,3.0762,3.0694,3.0695,3.0696,3.0746,0,3.0449,3.0495,3.0499,3.0541,3.0564,3.0561,3.0584,3.06,3.0608,3.0629,3.0638,3.0662,3.0649,3.0658,3.0677,3.0688,3.0715,3.0684,3.0718,3.0719,3.0715,3.0771,3.0778,3.0825,3.0752,3.0754,3.0754,0,3.05,3.052,3.0565,3.0586,3.0595,3.0616,3.0641,3.066,3.0679,3.0684,3.0701,3.07,3.073,3.0711,3.0753,3.0732,3.0747,3.0754,3.0756,3.0761,3.074,3.0779,3.084,3.0848,3.0764,3.0764,3.0763,0,3.053,3.0568,3.0601,3.0611,3.0635,3.0651,3.0661,3.068,3.0695,3.0716,3.0727,3.0751,3.0765,3.0785,3.0792,3.0777,3.0835,3.0816,3.0842,3.0842,3.0855,3.0854,3.0921,3.0861,3.0861,3.0861,3.0861,0,3.0575,3.0603,3.0615,3.0635,3.0668,3.0673,3.0705,3.0716,3.0733,3.0756,3.0754,3.0777,3.0784,3.0809,3.0814,3.085,3.0856,3.0862,3.0864,3.0863,3.0863,3.0874,3.0871,3.0863,3.0862,3.0862,3.0861,0,3.0614,3.0623,3.0659,3.068,3.0686,3.0709,3.0727,3.0748,3.0757,3.0787,3.0794,3.0808,3.0837,3.0846,3.088,3.0884,3.0927,3.0925,3.0921,3.0922,3.0948,3.0946,3.1025,3.1037,3.0967,3.0968,3.0969,0,3.0642,3.0664,3.0688,3.0704,3.0716,3.0741,3.0758,3.0764,3.0782,3.0808,3.0826,3.0855,3.0878,3.0925,3.0938,3.0966,3.0965,3.0991,3.0969,3.097,3.0969,3.0968,3.0972,3.0996,3.0997,3.0997,3.0998,0,3.0693,3.0697,3.0721,3.0747,3.0767,3.0787,3.0807,3.0821,3.0831,3.0851,3.0881,3.0899,3.0936,3.0966,3.0994,3.1007,3.1005,3.1005,3.1012,3.1013,3.1011,3.1015,3.0935,3.1003,3.1002,3.1002,3.1002,3.1001,3.0729,3.075,3.0771,3.0799,3.0815,3.0834,3.0856,3.0868,3.0893,3.0924,3.0926,3.096,3.0982,3.102,3.1035,3.1062,3.1055,3.1065,3.1068,3.1071,3.1075,3.1006,3.1067,3.1067,3.1066,3.1066,3.1066,0,3.0782,3.0796,3.0821,3.0851,3.0873,3.0869,3.0892,3.0912,3.0941,3.0961,3.0985,3.1022,3.1051,3.1069,3.1099,3.1118,3.1118,3.1126,3.1125,3.1129,3.1078,3.1069,3.1125,3.1125,3.1125,3.1125,3.1125,3.1125,3.0813,3.0849,3.0856,3.0901,3.0915,3.0948,3.0962,3.0981,3.0998,3.1039,3.1064,3.1075,3.1095,3.1127,3.1155,3.116,3.1172,3.1181,3.1185,3.1138,3.1132,3.1126,3.1118,3.1183,3.1183,3.1234,3.1235,3.1235]},{"header":{"parameterUnit":"m.s-1","parameterCategory":1,"la1":30.2991,"la2":30.254,"lo1":-89.0895,"lo2":-89.0444,"dy":0.0017,"dx":0.0017,"nx":28,"ny":28,"refTime":"2023-10-13T09:00:00:Z","depth":0,"parameterNumber":3,"parameterNumberName":"V-component_of_WINDS"},"data":[0,0,0,0,0,0,0,0,0,0,0,0,0,0,0,0,0,0,0,0,0,0,0,0,0,0,0,0,0,0,0,0,0,0,0,0,0,0,0,0,0,0,0,0,0,0,0,0,0,0,0,0,0,0,0,0,0,0,-3.8797,-3.8798,0,-3.8813,-3.8813,-3.8814,-3.8787,-3.8786,-3.8785,-3.8784,-3.8798,-3.8799,-3.88,0,0,0,0,0,0,0,0,0,0,0,0,0,-3.8744,-3.8745,-3.8797,-3.8798,-3.8798,-3.8813,-3.8813,-3.8814,-3.8787,-3.8786,-3.8785,-3.8784,-3.8798,-3.8799,-3.8801,0,0,0,0,0,0,0,0,0,0,0,0,0,-3.8764,-3.8745,-3.8797,-3.8786,-3.8786,-3.8813,-3.8813,-3.8814,-3.8787,-3.8786,-3.8784,-3.8783,-3.8797,-3.8799,-3.8801,-3.8839,0,0,-3.8806,-3.8807,0,0,0,0,0,0,0,0,-3.8763,-3.8766,-3.8788,-3.8787,-3.8786,-3.8797,-3.88,-3.8822,-3.8787,-3.8786,-3.8784,-3.8782,-3.8799,-3.88,-3.8806,-3.884,-3.884,-3.8806,-3.8808,-3.8808,-3.8809,0,0,0,0,0,0,0,-3.8761,-3.8765,-3.8804,-3.8788,-3.8787,-3.8781,-3.8782,-3.8804,-3.88,-3.8786,-3.8784,-3.8787,-3.8798,-3.8804,-3.8806,-3.8841,-3.8806,-3.8808,-3.8809,-3.881,-3.891,-3.8911,0,0,0,0,0,0,-3.8762,-3.8764,-3.8803,-3.8804,-3.8771,-3.8783,-3.8784,-3.8795,-3.88,-3.8799,-3.8788,-3.8786,-3.8802,-3.8804,-3.8807,-3.8854,-3.8808,-3.881,-3.8811,-3.8908,-3.891,-3.8912,0,0,0,0,0,0,-3.8761,-3.8765,-3.8802,-3.8784,-3.8788,-3.8785,-3.8797,-3.8796,-3.8802,-3.8801,-3.88,-3.8795,-3.8801,-3.8804,-3.8832,-3.8854,-3.8811,-3.8813,-3.8906,-3.8909,-3.8911,-3.8948,0,0,0,0,0,0,-3.8759,-3.8765,-3.8779,-3.8784,-3.8789,-3.8828,-3.8798,-3.8797,-3.8806,-3.8803,-3.8807,-3.8807,-3.88,-3.883,-3.8834,-3.8856,-3.8814,-3.8904,-3.8907,-3.891,-3.8945,-3.8951,-3.8957,0,0,0,0,0,-3.8757,-3.8788,-3.878,-3.8785,-3.8807,-3.8829,-3.8832,-3.8824,-3.8807,-3.8822,-3.8822,-3.8807,-3.8851,-3.8833,-3.8837,-3.886,-3.8903,-3.8907,-3.891,-3.8942,-3.895,-3.8957,0,0,0,0,0,0,-3.8784,-3.8788,-3.878,-3.8813,-3.8821,-3.8825,-3.8843,-3.8832,-3.8844,-3.8841,-3.883,-3.8831,-3.8862,-3.8864,-3.8843,-3.8899,-3.8874,-3.8879,-3.8897,-3.8904,-3.891,-3.891,-3.8815,0,0,0,0,0,-3.8794,-3.8813,-3.8815,-3.8844,-3.8849,-3.8845,-3.8854,-3.8848,-3.8856,-3.8859,-3.886,-3.8868,-3.8883,-3.8894,-3.8908,-3.8945,-3.8946,-3.8963,-3.8969,-3.8974,-3.8978,-3.9,-3.9008,-3.8923,-3.8923,-3.8923,0,0,-3.8815,-3.8819,-3.8831,-3.885,-3.8855,-3.8875,-3.8848,-3.8869,-3.8883,-3.8861,-3.8889,-3.8891,-3.8898,-3.8932,-3.8946,-3.8934,-3.9002,-3.8978,-3.8982,-3.8984,-3.9005,-3.9013,-3.902,-3.8926,-3.8925,-3.8925,0,0,-3.8863,-3.8867,-3.8893,-3.89,-3.891,-3.8908,-3.8914,-3.892,-3.8921,-3.8948,-3.8933,-3.895,-3.8977,-3.8984,-3.8991,-3.9045,-3.9032,-3.9049,-3.9081,-3.9103,-3.9109,-3.9115,-3.9136,-3.9144,-3.9054,-3.9054,-3.9054,0,-3.8887,-3.8916,-3.8908,-3.8931,-3.894,-3.8923,-3.895,-3.8957,-3.897,-3.8977,-3.8963,-3.8999,-3.9002,-3.9038,-3.9052,-3.9057,-3.9065,-3.9049,-3.9109,-3.9115,-3.912,-3.914,-3.9148,-3.9056,-3.9056,-3.9055,-3.9055,0,-3.8946,-3.8966,-3.8986,-3.9002,-3.9013,-3.9038,-3.9035,-3.9047,-3.904,-3.904,-3.907,-3.9074,-3.909,-3.9098,-3.909,-3.9134,-3.9126,-3.9111,-3.9086,-3.9131,-3.9149,-3.9157,-3.9059,-3.9058,-3.9058,-3.9057,0,0,-3.9009,-3.9023,-3.903,-3.9038,-3.9049,-3.9065,-3.9089,-3.9106,-3.9118,-3.9128,-3.915,-3.9174,-3.9161,-3.9169,-3.9163,-3.9182,-3.9227,-3.9164,-3.9164,-3.9177,-3.9277,-3.9289,-3.9298,-3.9218,-3.922,-3.9221,-3.9277,0,-3.9058,-3.9102,-3.9098,-3.914,-3.916,-3.9145,-3.9167,-3.9176,-3.9177,-3.9194,-3.9194,-3.9213,-3.9193,-3.9198,-3.9216,-3.9217,-3.9247,-3.9213,-3.9239,-3.924,-3.9238,-3.9308,-3.932,-3.9373,-3.9284,-3.9285,-3.9286,0,-3.9121,-3.9136,-3.9181,-3.9191,-3.9199,-3.9219,-3.9236,-3.9252,-3.9263,-3.9262,-3.9273,-3.9264,-3.9289,-3.9264,-3.93,-3.9277,-3.9287,-3.929,-3.9292,-3.9294,-3.9266,-3.9313,-3.9389,-3.9398,-3.9297,-3.9296,-3.9295,0,-3.9166,-3.9197,-3.9228,-3.9235,-3.9247,-3.9262,-3.9268,-3.9277,-3.9289,-3.9303,-3.9311,-3.9328,-3.9337,-3.935,-3.9346,-3.9328,-3.9384,-3.9357,-3.9385,-3.9385,-3.9397,-3.9397,-3.9477,-3.9402,-3.9402,-3.9402,-3.9402,0,-3.9221,-3.925,-3.9249,-3.9268,-3.93,-3.9295,-3.9326,-3.933,-3.9339,-3.9359,-3.9346,-3.9366,-3.9359,-3.9378,-3.9375,-3.9406,-3.941,-3.941,-3.941,-3.9412,-3.9413,-3.9419,-3.9416,-3.9404,-3.9404,-3.9403,-3.9403,0,-3.9276,-3.9277,-3.931,-3.932,-3.9324,-3.9347,-3.9355,-3.9374,-3.9375,-3.9401,-3.9406,-3.9408,-3.9429,-3.9427,-3.9451,-3.9449,-3.9488,-3.9482,-3.9485,-3.9484,-3.9513,-3.9511,-3.9601,-3.9613,-3.9529,-3.953,-3.9531,0,-3.9312,-3.9334,-3.9348,-3.9361,-3.9369,-3.939,-3.9403,-3.9398,-3.9412,-3.9428,-3.9445,-3.9466,-3.9483,-3.9518,-3.9521,-3.954,-3.9535,-3.9565,-3.9537,-3.9541,-3.9537,-3.9537,-3.954,-3.9571,-3.9572,-3.9573,-3.9573,0,-3.9377,-3.9377,-3.9396,-3.9417,-3.9433,-3.9448,-3.9462,-3.9473,-3.9471,-3.9487,-3.951,-3.9523,-3.9549,-3.9571,-3.9589,-3.9595,-3.9584,-3.9582,-3.959,-3.9593,-3.9595,-3.9596,-3.9502,-3.958,-3.9579,-3.9579,-3.9579,-3.9578,-3.9425,-3.9445,-3.9458,-3.9481,-3.9492,-3.9506,-3.9525,-3.9529,-3.9549,-3.9571,-3.9567,-3.9593,-3.9605,-3.9629,-3.9637,-3.9658,-3.9647,-3.9657,-3.966,-3.9663,-3.9667,-3.9591,-3.9661,-3.966,-3.966,-3.966,-3.966,0,-3.9491,-3.9499,-3.952,-3.9542,-3.956,-3.955,-3.9565,-3.9581,-3.9605,-3.9618,-3.9636,-3.9664,-3.9685,-3.9691,-3.9711,-3.9727,-3.9723,-3.9733,-3.9732,-3.9734,-3.9675,-3.9667,-3.9736,-3.9736,-3.9736,-3.9736,-3.9736,-3.9736,-3.9527,-3.9561,-3.9563,-3.9603,-3.9611,-3.9639,-3.9649,-3.9662,-3.9672,-3.9705,-3.9723,-3.9727,-3.9738,-3.976,-3.9779,-3.978,-3.9789,-3.9801,-3.9801,-3.9745,-3.9738,-3.9731,-3.9723,-3.9803,-3.9803,-3.9858,-3.9859,-3.9859]}]]